Namest Nad Oslav, Czech Republic

4:11 PM CET on November 19, 2017 (GMT +0100)
Namest

Weather History for LKNA - October, 2012

Change the Weather History Date:

Monday, October 29, 2012

  Actual Average Record
Temperature  
Mean Temperature 32 °F -  
Max Temperature 33 °F - - ()
Min Temperature 30 °F - - ()
Degree Days  
Heating Degree Days 34    
Moisture  
Dew Point 27 °F    
Average Humidity 81    
Maximum Humidity 93    
Minimum Humidity 65    
Precipitation  
Precipitation 0.00 in - - ()
Sea Level Pressure  
Sea Level Pressure 29.88 in    
Wind  
Wind Speed 8 mph ()    
Max Wind Speed 14 mph    
Max Gust Speed -    
Visibility 4.6 miles    
Events Snow    
T = Trace of Precipitation, MM = Missing Value Source: Averaged Metar Reports

Daily Weather History Graph

Daily Weather History Graph

Search for Another Location

Airport or City:

Trip Planner

Search our weather history database for the weather conditions in past years. The results will help you decide how hot, cold, wet, or windy it might be!

Date:

Astronomy

Oct. 29, 2012 Rise Set
Actual Time 6:38 AM CET 4:38 PM CET
Civil Twilight 6:05 AM CET 5:11 PM CET
Nautical Twilight 5:28 AM CET 5:49 PM CET
Astronomical Twilight 4:51 AM CET 6:26 PM CET
Moon 4:17 PM CET (10/29) 6:13 AM CET (10/29)
Length of Visible Light 11h 06m
Length of Day
10h 00m
Full, 100% of the Moon is Illuminated
Oct 29
Full
Oct 29
Full
Nov 7
Last Quarter
Nov 13
New
Nov 20
First Quarter

Hourly Weather History & Observations

Time (CET) Temp. Windchill Dew Point Humidity Pressure Visibility Wind Dir Wind Speed Gust Speed Precip Events Conditions
12:00 AM 32.0 °F 24.8 °F 26.6 °F 80% 29.89 in 6.2 mi North 8.1 mph - N/A   Mostly Cloudy
1:00 AM 32.0 °F 24.8 °F 26.6 °F 80% 29.89 in 6.2 mi North 8.1 mph - N/A   Mostly Cloudy
2:00 AM 32.0 °F 24.2 °F 28.4 °F 87% 29.89 in - North 9.2 mph - N/A   Clear
3:00 AM 32.0 °F 24.2 °F 26.6 °F 80% 29.89 in - North 9.2 mph - N/A   Clear
4:00 AM 32.0 °F 24.8 °F 28.4 °F 87% 29.89 in - NNW 8.1 mph - N/A   Clear
5:00 AM 32.0 °F 24.8 °F 28.4 °F 87% 29.89 in 6.2 mi North 8.1 mph - N/A   Mostly Cloudy
6:00 AM 32.0 °F 25.6 °F 26.6 °F 80% 29.89 in - NNW 6.9 mph - N/A   Clear
7:00 AM 32.0 °F 24.2 °F 26.6 °F 80% 29.89 in - North 9.2 mph - N/A   Clear
8:00 AM 32.0 °F 24.8 °F 28.4 °F 87% 29.92 in 6.2 mi NNW 8.1 mph - N/A Snow Light Snow
8:48 AM 32.0 °F 24.8 °F 28.4 °F 87% 29.92 in 1.2 mi North 8.1 mph - N/A Snow Light Snow
9:00 AM 32.0 °F 24.8 °F 28.4 °F 87% 29.92 in 1.2 mi North 8.1 mph - N/A Snow Light Snow
9:15 AM 32.0 °F 22.1 °F 26.6 °F 80% 29.92 in 3.1 mi North 13.8 mph - N/A Snow Light Snow
10:00 AM 32.0 °F 22.1 °F 23.0 °F 69% 29.89 in 3.7 mi North 13.8 mph - N/A Snow Light Snow
10:15 AM 32.0 °F 23.0 °F 24.8 °F 75% 29.92 in 1.9 mi NNE 11.5 mph - N/A Snow Light Snow
10:25 AM 32.0 °F 23.0 °F 26.6 °F 80% 29.89 in 3.7 mi NNE 11.5 mph - N/A Snow Light Snow
11:00 AM 33.8 °F 25.8 °F 23.0 °F 65% 29.89 in 6.2 mi NNW 10.4 mph - N/A   Overcast
12:00 PM 33.8 °F 24.8 °F 23.0 °F 65% 29.89 in 6.2 mi North 12.7 mph - N/A Snow Light Snow
1:00 PM 33.8 °F 25.8 °F 24.8 °F 70% 29.89 in 6.2 mi NNW 10.4 mph - N/A Snow Light Snow
2:00 PM 33.8 °F 25.3 °F 26.6 °F 75% 29.86 in 3.7 mi NNW 11.5 mph - N/A Snow Light Snow
3:00 PM 33.8 °F 25.3 °F 26.6 °F 75% 29.86 in 6.2 mi North 11.5 mph - N/A Snow Light Snow
4:00 PM 32.0 °F 24.8 °F 26.6 °F 80% 29.86 in 6.2 mi NNW 8.1 mph - N/A   Overcast
5:00 PM 32.0 °F 23.0 °F 28.4 °F 87% 29.86 in - NW 11.5 mph - N/A   Clear
6:00 PM 32.0 °F 24.2 °F 28.4 °F 87% 29.86 in - NW 9.2 mph - N/A   Clear
7:00 PM 32.0 °F 24.8 °F 28.4 °F 87% 29.86 in - NW 8.1 mph - N/A   Clear
8:00 PM 32.0 °F 25.6 °F 28.4 °F 87% 29.86 in - NW 6.9 mph - N/A   Clear
9:00 PM 32.0 °F 26.4 °F 28.4 °F 87% 29.86 in - NW 5.8 mph - N/A   Clear
10:00 PM 30.2 °F 24.3 °F 28.4 °F 93% 29.86 in - WNW 5.8 mph - N/A   Clear
11:00 PM 30.2 °F 23.4 °F 28.4 °F 93% 29.86 in - WNW 6.9 mph - N/A   Clear